{"data":{"norad_id":65317,"epoch":"2026-05-25T04:09:22.498848Z","epoch_age_seconds":70762,"freshness":"FRESH","line1":"1 65317U 25188C   26145.17317707  .00004988  00000+0  13323-3 0  9990","line2":"2 65317  97.2033 220.8908 0000742 234.9668 125.1509 15.38548395 41726","mean_motion":15.38548395,"eccentricity":7.42e-5,"inclination_deg":97.2033,"raan_deg":220.8908,"arg_perigee_deg":234.9668,"mean_anomaly_deg":125.1509,"bstar":0.00013323,"rev_number":4172,"period_min":93.59471594652,"perigee_km":449.89437113036,"apogee_km":450.90772617678,"semimajor_km":6828.5380486536,"source":"CELESTRAK","updated_at":"2026-05-25T13:38:05.323430Z"}}